Location: Del Amo
(33.8464°N, 118.2104°W)
Time: 07:24:56
(UTC+00:00)

SR - All Passes

Search period start: 19 September 2024 00:00
Search period end: 29 September 2024 00:00
Orbit: 579 x 855 km, 66.7° (Epoch: 18 September)

Date Brightness Start Highest point End Pass type
(mag) Time Alt. Az. Time Alt. Az. Time Alt. Az.
19 Sep - 05:23:02 10° NNW 05:27:53 86° ENE 05:33:09 10° SSE visible
19 Sep - 19:48:10 10° SW 19:52:22 56° WNW 19:56:32 10° NNE daylight
20 Sep - 04:30:27 10° N 04:34:55 36° ENE 04:39:41 10° SE visible
20 Sep - 06:12:43 10° WNW 06:16:31 22° WSW 06:20:32 10° SSW visible
20 Sep - 18:55:22 10° S 18:59:30 50° ESE 19:03:36 10° NE daylight
20 Sep - 20:39:40 10° WNW 20:41:33 13° NW 20:43:26 10° NNW daylight
21 Sep - 03:38:37 10° NNE 03:41:45 17° NE 03:45:00 10° E visible
21 Sep - 05:18:59 10° NW 05:23:45 53° WSW 05:28:53 10° S visible
21 Sep - 18:03:50 10° SSE 18:06:48 18° ESE 18:09:44 10° ENE daylight
21 Sep - 19:44:34 10° WSW 19:48:18 30° WNW 19:52:02 10° N daylight
22 Sep - 04:26:01 10° NNW 04:30:50 64° ENE 04:36:04 10° SE visible
22 Sep - 06:10:10 10° W 06:12:13 12° WSW 06:14:19 10° SW visible
22 Sep - 18:51:01 10° SSW 18:55:18 81° WNW 18:59:32 10° NNE daylight
23 Sep - 03:33:37 10° N 03:37:47 28° ENE 03:42:13 10° ESE visible
23 Sep - 05:15:13 10° NW 05:19:31 30° WSW 05:24:06 10° S visible
23 Sep - 17:58:34 10° S 18:02:28 35° ESE 18:06:19 10° NE daylight
23 Sep - 19:41:32 10° W 19:44:18 17° NW 19:47:06 10° NNW daylight
24 Sep - 02:42:16 10° NNE 02:44:30 13° NE 02:46:48 10° E visible
24 Sep - 04:21:47 10° NNW 04:26:41 73° WSW 04:31:58 10° SSE visible
24 Sep - 17:07:50 10° SE 17:09:46 13° ESE 17:11:43 10° ENE daylight
24 Sep - 18:47:06 10° SW 18:51:07 41° WNW 18:55:08 10° N daylight
25 Sep - 03:28:59 10° NNW 03:33:42 48° ENE 03:38:47 10° SE visible
25 Sep - 05:11:57 10° WNW 05:15:12 17° WSW 05:18:34 10° SSW visible
25 Sep - 17:53:55 10° SSW 17:58:09 71° ESE 18:02:22 10° NNE daylight
26 Sep - 02:36:48 10° N 02:40:33 22° NE 02:44:30 10° ESE visible
26 Sep - 04:17:47 10° NW 04:22:25 41° WSW 04:27:23 10° S visible
26 Sep - 17:01:53 10° SSE 17:05:21 25° ESE 17:08:49 10° NE daylight
26 Sep - 18:43:39 10° WSW 18:47:01 23° NW 18:50:23 10° N daylight
27 Sep - 03:24:35 10° NNW 03:29:31 84° ENE 03:34:51 10° SSE visible
27 Sep - 17:49:42 10° SW 17:53:53 58° WNW 17:58:04 10° NNE daylight
28 Sep - 02:31:57 10° N 02:36:28 36° ENE 02:41:17 10° SE visible
28 Sep - 04:14:08 10° WNW 04:18:05 23° WSW 04:22:15 10° SSW visible
28 Sep - 16:56:52 10° S 17:00:57 48° ESE 17:05:02 10° NE daylight
28 Sep - 18:40:59 10° W 18:42:59 13° NW 18:45:00 10° NNW daylight
